SV1JCZ-13 Weather Reports


time (UTC)temp
F
wind
direction
speed
knots
gust
knots
rain 1hr
in
rain 24hr
in
rain mn
in
humidity
%
barometer
mb
20260506215722 61 293 0.0 0.0 0.00 0.00 0.00 50
20260506215122 61 293 0.0 0.0 0.00 0.00 0.00 50
20260506214923 61 293 0.0 0.0 0.00 0.00 0.00 49
20260506214522 61 293 0.0 0.0 0.00 0.00 0.00 49
20260506213922 61 293 0.0 0.0 0.00 0.00 0.00 53
20260506213322 61 293 0.0 0.0 0.00 0.00 0.00 53
20260506212722 61 293 0.0 0.0 0.00 0.00 0.00 53
20260506212122 61 293 0.0 0.0 0.00 0.00 0.00 52
20260506211522 61 293 0.0 0.0 0.00 0.00 0.00 52
20260506210922 61 293 0.0 0.0 0.00 0.00 0.00 51
20260506210322 62 293 0.0 0.0 0.00 0.00 0.00 51
20260506205722 62 293 0.0 0.0 0.00 0.00 0.00 51
20260506205122 62 293 0.0 0.0 0.00 0.00 0.00 50
20260506204923 62 293 0.0 0.0 0.00 0.00 0.00 50
20260506204522 62 293 0.0 0.0 0.00 0.00 0.00 50
20260506203922 62 293 0.0 0.0 0.00 0.00 0.00 50
20260506203322 62 293 0.0 0.0 0.00 0.00 0.00 49
20260506202923 62 293 0.0 0.0 0.00 0.00 0.00 50
20260506202722 63 293 0.0 0.0 0.00 0.00 0.00 49
20260506202122 63 293 0.0 0.0 0.00 0.00 0.00 49
20260506201522 63 293 0.0 0.0 0.00 0.00 0.00 48
20260506200922 63 293 0.0 4.3 0.00 0.00 0.00 48
20260506200322 63 57 0.0 0.0 0.00 0.00 0.00 45
20260506195722 63 57 0.0 3.5 0.00 0.00 0.00 50
20260506195122 63 70 0.0 0.0 0.00 0.00 0.00 50
20260506194923 63 70 0.0 0.0 0.00 0.00 0.00 50
20260506194522 64 70 0.0 0.0 0.00 0.00 0.00 50
20260506193922 64 70 0.0 0.0 0.00 0.00 0.00 49
20260506193322 64 70 0.0 0.0 0.00 0.00 0.00 49
20260506192923 65 70 0.0 0.0 0.00 0.00 0.00 49
20260506192722 65 70 0.0 0.0 0.00 0.00 0.00 48
20260506192122 65 70 0.0 0.0 0.00 0.00 0.00 47
20260506191522 66 70 0.0 0.0 0.00 0.00 0.00 46
20260506190922 66 70 0.0 2.6 0.00 0.00 0.00 45
20260506190322 66 168 0.0 3.5 0.00 0.00 0.00 44
20260506185722 66 77 0.0 0.0 0.00 0.00 0.00 44
20260506185122 66 77 0.0 0.0 0.00 0.00 0.00 43
20260506184522 66 77 0.0 4.3 0.00 0.00 0.00 44
20260506183922 66 140 0.0 3.5 0.00 0.00 0.00 43
20260506183322 66 42 0.0 4.3 0.00 0.00 0.00 42
20260506182722 67 92 0.0 4.3 0.00 0.00 0.00 41
20260506182122 67 126 0.0 3.5 0.00 0.00 0.00 41
20260506181522 67 133 0.0 0.0 0.00 0.00 0.00 42
20260506180922 67 133 0.0 2.6 0.00 0.00 0.00 42
20260506180322 67 88 0.0 3.5 0.00 0.00 0.00 40
20260506175722 68 97 0.0 5.2 0.00 0.00 0.00 40
20260506175122 68 49 0.0 5.2 0.00 0.00 0.00 40
20260506174923 68 49 2.6 5.2 0.00 0.00 0.00 39
20260506174522 68 175 0.0 4.3 0.00 0.00 0.00 39
20260506173922 69 102 0.0 3.5 0.00 0.00 0.00 40
20260506173322 69 132 0.0 0.0 0.00 0.00 0.00 41
20260506172722 69 132 0.0 7.8 0.00 0.00 0.00 39
20260506172123 70 130 0.0 2.6 0.00 0.00 0.00 38
20260506171522 70 147 0.0 3.5 0.00 0.00 0.00 38
20260506170922 70 115 0.0 0.0 0.00 0.00 0.00 40
20260506170322 71 115 0.0 0.0 0.00 0.00 0.00 36
20260506165722 71 115 0.0 4.3 0.00 0.00 0.00 36
20260506165123 72 125 0.0 0.0 0.00 0.00 0.00 35
20260506164522 73 125 1.7 4.3 0.00 0.00 0.00 34
20260506163923 74 106 0.0 5.2 0.00 0.00 0.00 35
20260506163322 75 23 0.0 0.0 0.00 0.00 0.00 34
20260506162924 76 23 0.0 0.0 0.00 0.00 0.00 36
20260506162723 76 23 0.0 0.0 0.00 0.00 0.00 38
20260506162122 76 23 0.0 0.0 0.00 0.00 0.00 40
20260506161523 77 23 0.0 0.0 0.00 0.00 0.00 39
20260506160923 78 23 0.0 0.0 0.00 0.00 0.00 40
20260506160323 78 23 0.0 0.0 0.00 0.00 0.00 35
20260506155723 77 23 0.0 0.0 0.00 0.00 0.00 38
20260506155123 76 23 0.0 0.0 0.00 0.00 0.00 41
20260506154924 76 23 0.0 0.0 0.00 0.00 0.00 44
20260506154523 75 23 0.0 0.0 0.00 0.00 0.00 46
20260506153923 74 23 0.0 0.0 0.00 0.00 0.00 46
20260506153323 74 23 0.0 0.0 0.00 0.00 0.00 47
20260506152924 74 23 0.0 0.0 0.00 0.00 0.00 47
20260506152723 74 23 0.0 0.0 0.00 0.00 0.00 47
20260506152123 74 23 0.0 0.0 0.00 0.00 0.00 48
20260506151523 74 23 0.0 0.0 0.00 0.00 0.00 47
20260506150923 74 23 0.0 0.0 0.00 0.00 0.00 44
20260506150323 74 23 0.0 0.0 0.00 0.00 0.00 43
20260506145723 74 23 0.0 0.0 0.00 0.00 0.00 42
20260506145123 75 23 0.0 0.0 0.00 0.00 0.00 43
20260506144924 75 23 0.0 0.0 0.00 0.00 0.00 42
20260506144523 75 23 0.0 0.0 0.00 0.00 0.00 42
20260506143923 75 23 0.0 0.0 0.00 0.00 0.00 42
20260506143323 75 23 0.0 0.0 0.00 0.00 0.00 41
20260506142924 75 23 0.0 0.0 0.00 0.00 0.00 41
20260506142723 75 23 0.0 0.0 0.00 0.00 0.00 41
20260506142123 75 23 0.0 0.0 0.00 0.00 0.00 40
20260506141523 75 23 0.0 0.0 0.00 0.00 0.00 39
20260506140923 75 23 0.0 0.0 0.00 0.00 0.00 39
20260506140323 75 23 0.0 0.0 0.00 0.00 0.00 39
20260506135723 75 23 0.0 0.0 0.00 0.00 0.00 39
20260506135123 76 23 0.0 3.5 0.00 0.00 0.00 38
20260506134924 76 23 0.0 3.5 0.00 0.00 0.00 38
20260506134523 76 329 0.0 2.6 0.00 0.00 0.00 38
20260506133923 77 275 0.0 0.0 0.00 0.00 0.00 37
20260506133323 77 275 0.0 0.0 0.00 0.00 0.00 37
20260506132924 77 275 0.0 0.0 0.00 0.00 0.00 37
20260506132723 77 275 0.0 0.0 0.00 0.00 0.00 37
20260506132123 76 275 0.0 3.5 0.00 0.00 0.00 39
20260506131523 75 291 0.0 2.6 0.00 0.00 0.00 39
20260506130923 75 291 0.0 3.5 0.00 0.00 0.00 40
20260506130323 75 358 0.0 4.3 0.00 0.00 0.00 40
20260506125723 75 320 2.6 5.2 0.00 0.00 0.00 40
20260506125123 75 307 0.0 2.6 0.00 0.00 0.00 41
20260506124924 75 307 2.6 2.6 0.00 0.00 0.00 40
20260506124523 75 312 0.0 1.7 0.00 0.00 0.00 41
20260506123923 74 312 0.0 3.5 0.00 0.00 0.00 39
20260506123323 74 267 0.0 3.5 0.00 0.00 0.00 39
20260506122924 74 267 0.0 3.5 0.00 0.00 0.00 39
20260506122723 74 358 0.0 4.3 0.00 0.00 0.00 39
20260506122123 74 307 0.0 4.3 0.00 0.00 0.00 38
20260506121523 74 358 0.0 7.0 0.00 0.00 0.00 38
20260506120923 74 1 0.0 5.2 0.00 0.00 0.00 38
20260506120323 74 323 0.0 7.8 0.00 0.00 0.00 39
20260506115723 74 302 0.0 6.1 0.00 0.00 0.00 39
20260506115123 74 11 0.0 7.0 0.00 0.00 0.00 39
20260506114924 74 334 5.2 7.0 0.00 0.00 0.00 38
20260506114524 74 358 0.0 6.1 0.00 0.00 0.00 40
20260506113923 74 43 0.0 2.6 0.00 0.00 0.00 41
20260506113323 73 43 0.0 7.0 0.00 0.00 0.00 41
20260506112924 73 303 0.0 1.7 0.00 0.00 0.00 42
20260506112723 73 303 0.0 7.0 0.00 0.00 0.00 42
20260506112123 72 1 3.5 5.2 0.00 0.00 0.00 43
20260506111523 72 254 0.0 7.0 0.00 0.00 0.00 45
20260506110923 72 271 0.0 6.1 0.00 0.00 0.00 46
20260506110323 71 16 0.0 7.8 0.00 0.00 0.00 46
20260506105723 71 295 0.0 0.0 0.00 0.00 0.00 47
20260506105123 71 295 0.0 6.1 0.00 0.00 0.00 44
20260506104924 71 352 3.5 6.1 0.00 0.00 0.00 44
20260506104523 71 313 1.7 7.0 0.00 0.00 0.00 42
20260506103923 71 278 4.3 5.2 0.00 0.00 0.00 44
20260506103323 71 28 1.7 4.3 0.00 0.00 0.00 46
20260506102924 71 265 0.0 11.3 0.00 0.00 0.00 43
20260506102723 71 358 0.0 11.3 0.00 0.00 0.00 45
20260506102123 70 309 0.0 0.0 0.00 0.00 0.00 47
20260506101523 70 309 0.0 6.1 0.00 0.00 0.00 48
20260506100923 70 9 3.5 4.3 0.00 0.00 0.00 49
20260506100323 70 347 3.5 3.5 0.00 0.00 0.00 50
20260506095723 70 358 0.0 3.5 0.00 0.00 0.00 48
20260506095123 70 337 4.3 5.2 0.00 0.00 0.00 48
20260506094924 70 163 0.0 2.6 0.00 0.00 0.00 44
20260506094523 70 255 0.0 3.5 0.00 0.00 0.00 46
20260506093923 70 296 0.0 7.0 0.00 0.00 0.00 43
20260506093323 70 358 0.0 1.7 0.00 0.00 0.00 41
20260506092723 70 358 0.0 3.5 0.00 0.00 0.00 42
20260506092123 70 330 0.0 5.2 0.00 0.00 0.00 44
20260506091523 70 358 0.0 0.0 0.00 0.00 0.00 44
20260506090923 70 358 0.0 6.1 0.00 0.00 0.00 43
20260506090323 70 341 0.0 0.0 0.00 0.00 0.00 45
20260506085723 70 341 0.0 0.0 0.00 0.00 0.00 44
20260506085123 70 341 0.0 0.0 0.00 0.00 0.00 44
20260506084924 70 341 0.0 0.0 0.00 0.00 0.00 43
20260506084523 70 341 0.0 0.9 0.00 0.00 0.00 41
20260506083923 69 341 0.0 0.9 0.00 0.00 0.00 40
20260506083323 69 341 0.0 4.3 0.00 0.00 0.00 39
20260506082925 69 322 3.5 3.5 0.00 0.00 0.00 39
20260506082723 69 340 0.0 0.9 0.00 0.00 0.00 40
20260506082123 69 340 0.0 3.5 0.00 0.00 0.00 39
20260506081523 68 7 0.0 0.0 0.00 0.00 0.00 39
20260506080923 68 7 0.0 4.3 0.00 0.00 0.00 38
20260506080323 68 295 0.0 3.5 0.00 0.00 0.00 38
20260506073323 66 71 0.0 4.3 0.00 0.00 0.00 44
20260506072925 66 264 0.0 0.0 0.00 0.00 0.00 45
20260506072723 66 264 0.0 0.0 0.00 0.00 0.00 44
20260506072123 66 264 0.0 0.0 0.00 0.00 0.00 46
20260506071523 66 264 0.0 0.0 0.00 0.00 0.00 43
20260506070923 65 264 0.0 0.0 0.00 0.00 0.00 43
20260506070323 65 264 0.0 2.6 0.00 0.00 0.00 46
20260506062124 62 90 0.0 0.0 0.00 0.00 0.00 56
20260506061524 61 90 0.0 0.0 0.00 0.00 0.00 56
20260506060924 60 90 0.0 0.0 0.00 0.00 0.00 62
20260506060324 60 90 0.0 0.0 0.00 0.00 0.00 64
20260506050924 56 90 0.0 0.0 0.00 0.00 0.00 69
20260506050324 56 90 0.0 0.0 0.00 0.00 0.00 69
20260506045124 56 90 0.0 0.0 0.00 0.00 0.00 68
20260506044925 56 90 0.0 0.0 0.00 0.00 0.00 67
20260506044524 56 90 0.0 0.0 0.00 0.00 0.00 67
20260506043924 56 90 0.0 0.0 0.00 0.00 0.00 67
20260506043324 56 90 0.0 0.0 0.00 0.00 0.00 67
20260506042724 55 90 0.0 0.0 0.00 0.00 0.00 66
20260506042124 55 90 0.0 0.0 0.00 0.00 0.00 66
20260506041524 55 90 0.0 0.0 0.00 0.00 0.00 66
20260506040924 55 90 0.0 0.0 0.00 0.00 0.00 66
20260506040324 55 90 0.0 0.0 0.00 0.00 0.00 66
20260506035724 55 90 0.0 0.0 0.00 0.00 0.00 65
20260506035124 55 90 0.0 0.0 0.00 0.00 0.00 65
20260506034925 55 90 0.0 0.0 0.00 0.00 0.00 65
20260506034524 55 90 0.0 0.0 0.00 0.00 0.00 65
20260506033924 55 90 0.0 0.0 0.00 0.00 0.00 65
20260506033324 55 90 0.0 0.0 0.00 0.00 0.00 64
20260506032925 55 90 0.0 0.0 0.00 0.00 0.00 64
20260506032724 56 90 0.0 0.0 0.00 0.00 0.00 64
20260506032124 56 90 0.0 0.0 0.00 0.00 0.00 64
20260506031524 56 90 0.0 0.0 0.00 0.00 0.00 64
20260506030924 56 90 0.0 0.0 0.00 0.00 0.00 64
20260506030324 56 90 0.0 0.0 0.00 0.00 0.00 63
20260506025724 56 90 0.0 0.0 0.00 0.00 0.00 63
20260506025124 56 90 0.0 0.0 0.00 0.00 0.00 63
20260506024925 56 90 0.0 0.0 0.00 0.00 0.00 63
20260506024524 56 90 0.0 0.0 0.00 0.00 0.00 63
20260506023924 56 90 0.0 0.0 0.00 0.00 0.00 63
20260506023324 56 90 0.0 0.0 0.00 0.00 0.00 63
20260506022925 56 90 0.0 0.0 0.00 0.00 0.00 64
20260506022724 56 90 0.0 0.0 0.00 0.00 0.00 64
20260506022124 57 90 0.0 0.0 0.00 0.00 0.00 63
20260506021524 57 90 0.0 0.0 0.00 0.00 0.00 63
20260506020924 57 90 0.0 0.0 0.00 0.00 0.00 63
20260506020324 57 90 0.0 0.0 0.00 0.00 0.00 63
20260506015724 57 90 0.0 0.0 0.00 0.00 0.00 63
20260506015124 57 90 0.0 0.0 0.00 0.00 0.00 63
20260506014925 57 90 0.0 0.0 0.00 0.00 0.00 63
20260506014524 57 90 0.0 0.0 0.00 0.00 0.00 63
20260506013924 58 90 0.0 0.0 0.00 0.00 0.00 63
20260506013324 58 90 0.0 0.0 0.00 0.00 0.00 63
20260506012925 58 90 0.0 0.0 0.00 0.00 0.00 63
20260506012724 58 90 0.0 0.0 0.00 0.00 0.00 62
20260506012124 58 90 0.0 0.0 0.00 0.00 0.00 62
20260506011524 58 90 0.0 0.0 0.00 0.00 0.00 62
20260506010924 58 90 0.0 0.0 0.00 0.00 0.00 61
20260506010324 58 90 0.0 0.0 0.00 0.00 0.00 61
20260506005724 58 90 0.0 0.0 0.00 0.00 0.00 61
20260506005124 58 90 0.0 0.0 0.00 0.00 0.00 61
20260506004524 58 90 0.0 0.0 0.00 0.00 0.00 61
20260506003924 58 90 0.0 0.0 0.00 0.00 0.00 61
20260506003324 58 90 0.0 0.0 0.00 0.00 0.00 61
20260506002925 58 90 0.0 0.0 0.00 0.00 0.00 61
20260506002724 58 90 0.0 0.0 0.00 0.00 0.00 61
20260506002124 58 90 0.0 0.0 0.00 0.00 0.00 60
20260506001524 58 90 0.0 0.0 0.00 0.00 0.00 60
20260506000924 58 90 0.0 0.0 0.00 0.00 0.00 60
20260506000324 58 90 0.0 0.0 0.00 0.00 0.00 60
20260505235724 58 90 0.0 0.0 0.00 0.00 0.00 61
20260505235124 58 90 0.0 0.0 0.00 0.00 0.00 61
20260505234925 58 90 0.0 0.0 0.00 0.00 0.00 61
20260505234524 58 90 0.0 0.0 0.00 0.00 0.00 61
20260505233924 58 90 0.0 0.0 0.00 0.00 0.00 60
20260505233324 57 90 0.0 0.0 0.00 0.00 0.00 61
20260505232926 57 90 0.0 0.0 0.00 0.00 0.00 61
20260505232724 57 90 0.0 0.0 0.00 0.00 0.00 61
20260505232124 58 90 0.0 0.0 0.00 0.00 0.00 61
20260505231524 58 90 0.0 0.0 0.00 0.00 0.00 61
20260505230924 58 90 0.0 0.0 0.00 0.00 0.00 61
20260505230324 58 90 0.0 0.0 0.00 0.00 0.00 61
20260505225724 58 90 0.0 0.0 0.00 0.00 0.00 60
20260505225124 59 90 0.0 0.0 0.00 0.00 0.00 60
20260505224926 59 90 0.0 0.0 0.00 0.00 0.00 60
20260505224524 59 90 0.0 0.0 0.00 0.00 0.00 60
20260505223924 59 90 0.0 0.0 0.00 0.00 0.00 59
20260505223324 60 90 0.0 0.0 0.00 0.00 0.00 58
20260505222926 60 90 0.0 0.0 0.00 0.00 0.00 58
20260505222724 60 90 0.0 0.0 0.00 0.00 0.00 58
20260505222125 60 90 0.0 3.5 0.00 0.00 0.00 57
20260505221525 60 168 0.0 2.6 0.00 0.00 0.00 56
20260505220925 60 143 0.0 0.0 0.00 0.00 0.00 57
20260505220325 60 143 0.0 4.3 0.00 0.00 0.00 57